When you browse on this site, cookies collect data to enhance your experience and personalize the content and advertising you see.
Visit our Privacy Policy to learn more. By continuing to use the site, you agree to this use of cookies and data.

Stündliche Wetter Borshomi

Heute, 12 Juli, Sonntag

Zeit Temperatur Niederschläge Wind Luftdruck Luftfeuchtigkeit
00:00 +16°C° 0 mm 1 m/S 665 mmHg 93%
01:00 +16°C° 0 mm 1 m/S 665 mmHg 93%
02:00 +16°C° 0 mm 1 m/S 665 mmHg 93%
03:00 +16°C° 0 mm 2 m/S 665 mmHg 92%
04:00 +16°C° 0 mm 2 m/S 664 mmHg 92%
05:00 +16°C° 0 mm 2 m/S 664 mmHg 92%
06:00 +17°C° 0 mm 2 m/S 664 mmHg 91%
07:00 +19°C° 0.1 mm 2 m/S 665 mmHg 82%
08:00 +21°C° 0.1 mm 2 m/S 665 mmHg 73%
09:00 +24°C° 0.1 mm 3 m/S 665 mmHg 64%
10:00 +25°C° 0.4 mm 3 m/S 665 mmHg 61%
11:00 +26°C° 0.4 mm 3 m/S 665 mmHg 59%
12:00 +27°C° 0.4 mm 3 m/S 665 mmHg 56%
13:00 +27°C° 0.8 mm 3 m/S 665 mmHg 60%
14:00 +26°C° 0.8 mm 3 m/S 664 mmHg 64%
15:00 +25°C° 0.8 mm 3 m/S 664 mmHg 67%
16:00 +24°C° 0.9 mm 2 m/S 664 mmHg 73%
17:00 +23°C° 0.9 mm 2 m/S 663 mmHg 79%
18:00 +21°C° 0.9 mm 2 m/S 663 mmHg 85%
19:00 +21°C° 0.8 mm 1 m/S 663 mmHg 88%
20:00 +20°C° 0.8 mm 1 m/S 663 mmHg 91%
21:00 +19°C° 0.8 mm 1 m/S 663 mmHg 94%
22:00 +18°C° 0.1 mm 1 m/S 663 mmHg 95%
23:00 +18°C° 0.1 mm 1 m/S 662 mmHg 95%

Morgen, 13 Juli, Montag

Zeit Temperatur Niederschläge Wind Luftdruck Luftfeuchtigkeit
00:00 +18°C° 0.1 mm 1 m/S 662 mmHg 96%
01:00 +18°C° 0 mm 1 m/S 662 mmHg 95%
02:00 +18°C° 0 mm 1 m/S 662 mmHg 95%
03:00 +18°C° 0 mm 1 m/S 662 mmHg 94%
04:00 +18°C° 0 mm 1 m/S 662 mmHg 94%
05:00 +18°C° 0 mm 1 m/S 661 mmHg 93%
06:00 +18°C° 0 mm 1 m/S 661 mmHg 93%
07:00 +20°C° 0.1 mm 1 m/S 662 mmHg 86%
08:00 +21°C° 0.1 mm 1 m/S 662 mmHg 80%
09:00 +23°C° 0.1 mm 1 m/S 663 mmHg 73%
10:00 +23°C° 1.1 mm 1 m/S 662 mmHg 77%
11:00 +23°C° 1.1 mm 2 m/S 662 mmHg 80%
12:00 +23°C° 1.1 mm 2 m/S 662 mmHg 83%
13:00 +21°C° 2.2 mm 2 m/S 662 mmHg 86%
14:00 +22°C° 2.2 mm 1 m/S 661 mmHg 89%
15:00 +21°C° 2.2 mm 1 m/S 661 mmHg 92%
16:00 +20°C° 1.4 mm 1 m/S 661 mmHg 93%
17:00 +20°C° 1.4 mm 1 m/S 661 mmHg 95%
18:00 +20°C° 1.4 mm 1 m/S 661 mmHg 96%
19:00 +19°C° 0.2 mm 1 m/S 661 mmHg 97%
20:00 +19°C° 0.2 mm 1 m/S 662 mmHg 98%
21:00 +18°C° 0.2 mm 1 m/S 662 mmHg 98%
22:00 +18°C° 0.1 mm 1 m/S 662 mmHg 98%
23:00 +18°C° 0.1 mm 1 m/S 662 mmHg 98%

übermorgen, 14 Juli, Dienstag

Zeit Temperatur Niederschläge Wind Luftdruck Luftfeuchtigkeit
00:00 +18°C° 0.1 mm 1 m/S 662 mmHg 98%
01:00 +18°C° 0.2 mm 1 m/S 662 mmHg 98%
02:00 +16°C° 0.2 mm 1 m/S 662 mmHg 98%
03:00 +16°C° 0.2 mm 1 m/S 662 mmHg 98%
04:00 +18°C° 0.5 mm 1 m/S 662 mmHg 98%
05:00 +18°C° 0.5 mm 1 m/S 663 mmHg 98%
06:00 +18°C° 0.5 mm 1 m/S 663 mmHg 98%
07:00 +18°C° 0.4 mm 1 m/S 663 mmHg 96%
08:00 +19°C° 0.4 mm 1 m/S 664 mmHg 94%
09:00 +19°C° 0.4 mm 1 m/S 664 mmHg 92%
10:00 +20°C° 0.7 mm 1 m/S 664 mmHg 90%
11:00 +20°C° 0.7 mm 2 m/S 664 mmHg 88%
12:00 +20°C° 0.7 mm 2 m/S 664 mmHg 86%
13:00 +20°C° 0.9 mm 2 m/S 664 mmHg 88%
14:00 +20°C° 0.9 mm 2 m/S 664 mmHg 90%
15:00 +19°C° 0.9 mm 2 m/S 664 mmHg 92%
16:00 +19°C° 0.4 mm 2 m/S 664 mmHg 93%
17:00 +19°C° 0.4 mm 2 m/S 665 mmHg 93%
18:00 +18°C° 0.4 mm 2 m/S 665 mmHg 94%
19:00 +17°C° 0.1 mm 2 m/S 665 mmHg 95%
20:00 +18°C° 0.1 mm 1 m/S 666 mmHg 96%
21:00 +16°C° 0.1 mm 1 m/S 666 mmHg 97%
22:00 +16°C° 0.1 mm 1 m/S 666 mmHg 97%
23:00 +16°C° 0.1 mm 1 m/S 666 mmHg 97%

15 Juli, Mittwoch

Zeit Temperatur Niederschläge Wind Luftdruck Luftfeuchtigkeit
00:00 +16°C° 0.1 mm 1 m/S 666 mmHg 97%
01:00 +15°C° 0 mm 1 m/S 666 mmHg 97%
02:00 +15°C° 0 mm 1 m/S 666 mmHg 96%
03:00 +15°C° 0 mm 1 m/S 666 mmHg 96%
04:00 +15°C° 0 mm 1 m/S 666 mmHg 95%
05:00 +15°C° 0 mm 1 m/S 666 mmHg 95%
06:00 +15°C° 0 mm 1 m/S 666 mmHg 94%
07:00 +18°C° 0 mm 1 m/S 666 mmHg 86%
08:00 +20°C° 0 mm 1 m/S 667 mmHg 77%
09:00 +22°C° 0 mm 1 m/S 667 mmHg 69%
10:00 +24°C° 0 mm 1 m/S 667 mmHg 64%
11:00 +25°C° 0 mm 2 m/S 667 mmHg 59%
12:00 +27°C° 0 mm 2 m/S 667 mmHg 54%
13:00 +26°C° 0.1 mm 2 m/S 667 mmHg 58%
14:00 +26°C° 0.1 mm 3 m/S 667 mmHg 62%
15:00 +25°C° 0.1 mm 3 m/S 666 mmHg 66%
16:00 +24°C° 0.2 mm 3 m/S 666 mmHg 73%
17:00 +23°C° 0.2 mm 2 m/S 666 mmHg 79%
18:00 +21°C° 0.2 mm 2 m/S 666 mmHg 85%
19:00 +20°C° 0.2 mm 2 m/S 666 mmHg 89%
20:00 +18°C° 0.2 mm 2 m/S 666 mmHg 94%
21:00 +18°C° 0.2 mm 1 m/S 666 mmHg 98%
22:00 +18°C° 0.1 mm 1 m/S 666 mmHg 98%
23:00 +18°C° 0.1 mm 1 m/S 666 mmHg 98%

16 Juli, Donnerstag

Zeit Temperatur Niederschläge Wind Luftdruck Luftfeuchtigkeit
00:00 +16°C° 0.1 mm 1 m/S 666 mmHg 98%
01:00 +16°C° 0.1 mm 1 m/S 666 mmHg 98%
02:00 +16°C° 0.1 mm 1 m/S 665 mmHg 97%
03:00 +16°C° 0.1 mm 1 m/S 665 mmHg 97%
04:00 +15°C° 0 mm 0 m/S 665 mmHg 96%
05:00 +15°C° 0 mm 0 m/S 665 mmHg 94%
06:00 +15°C° 0 mm 0 m/S 665 mmHg 93%
07:00 +17°C° 0 mm 0 m/S 665 mmHg 85%
08:00 +21°C° 0 mm 1 m/S 666 mmHg 78%
09:00 +23°C° 0 mm 1 m/S 666 mmHg 70%
10:00 +24°C° 0.1 mm 1 m/S 666 mmHg 68%
11:00 +24°C° 0.1 mm 1 m/S 666 mmHg 65%
12:00 +25°C° 0.1 mm 1 m/S 666 mmHg 63%
13:00 +25°C° 0.5 mm 2 m/S 665 mmHg 67%
14:00 +25°C° 0.5 mm 2 m/S 665 mmHg 71%
15:00 +24°C° 0.5 mm 2 m/S 665 mmHg 75%
16:00 +23°C° 0.5 mm 2 m/S 664 mmHg 80%
17:00 +21°C° 0.5 mm 2 m/S 664 mmHg 85%
18:00 +20°C° 0.5 mm 2 m/S 664 mmHg 90%
19:00 +20°C° 0.2 mm 1 m/S 664 mmHg 92%
20:00 +19°C° 0.2 mm 1 m/S 664 mmHg 95%
21:00 +18°C° 0.2 mm 1 m/S 664 mmHg 98%
22:00 +18°C° 0.1 mm 1 m/S 664 mmHg 98%
23:00 +18°C° 0.1 mm 1 m/S 664 mmHg 98%

17 Juli, Freitag

Zeit Temperatur Niederschläge Wind Luftdruck Luftfeuchtigkeit
00:00 +16°C° 0.1 mm 0 m/S 664 mmHg 98%
01:00 +16°C° 0 mm 0 m/S 664 mmHg 98%
02:00 +16°C° 0 mm 0 m/S 663 mmHg 98%
03:00 +16°C° 0 mm 0 m/S 663 mmHg 98%
04:00 +16°C° 0 mm 0 m/S 663 mmHg 97%
05:00 +16°C° 0 mm 0 m/S 663 mmHg 96%
06:00 +16°C° 0 mm 0 m/S 663 mmHg 96%
07:00 +20°C° 0 mm 1 m/S 664 mmHg 89%
08:00 +21°C° 0 mm 1 m/S 664 mmHg 83%
09:00 +23°C° 0 mm 1 m/S 664 mmHg 76%
10:00 +24°C° 0.1 mm 1 m/S 664 mmHg 71%
11:00 +26°C° 0.1 mm 2 m/S 664 mmHg 65%
12:00 +27°C° 0.1 mm 2 m/S 665 mmHg 60%
13:00 +27°C° 0.6 mm 2 m/S 664 mmHg 65%
14:00 +26°C° 0.6 mm 2 m/S 664 mmHg 69%
15:00 +26°C° 0.6 mm 2 m/S 664 mmHg 74%
16:00 +25°C° 0.6 mm 2 m/S 664 mmHg 77%
17:00 +24°C° 0.6 mm 2 m/S 664 mmHg 80%
18:00 +24°C° 0.6 mm 2 m/S 663 mmHg 84%
19:00 +22°C° 0.2 mm 1 m/S 663 mmHg 88%
20:00 +20°C° 0.2 mm 1 m/S 663 mmHg 92%
21:00 +19°C° 0.2 mm 1 m/S 663 mmHg 97%
22:00 +19°C° 0 mm 1 m/S 663 mmHg 96%
23:00 +18°C° 0 mm 1 m/S 663 mmHg 95%
Mehr zeigen